Simultaneous Nadir Overpasses (SNOs) Predictions

Prediction of SNOs between GOES-17 and TERRA Satellite Orbit:

Table of predicted SNOs for the next 14.0 days since TLE Epoch: 10/17/2020
Index Date Time (GOES-17) GOES-17 Lat,Lon TERRA Lat,Lon Distance(km) Time Diff (sec)
1 10/18/2020 19:27:40 -0.05,-137.21 -0.69,-134.11 351.72 80
2 10/19/2020 07:49:04 0.05,-137.20 -0.42,-139.30 238.81 80
3 10/21/2020 07:34:12 0.04,-137.19 0.20,-136.34 96.23 80
4 10/21/2020 19:55:28 -0.04,-137.19 0.86,-141.50 490.65 80
5 10/23/2020 07:22:00 0.04,-137.17 0.82,-133.38 430.69 80
6 10/23/2020 19:43:16 -0.03,-137.17 0.24,-138.55 156.24 80
7 10/25/2020 19:33:44 -0.03,-137.15 -0.39,-135.59 178.00 80
8 10/26/2020 07:55:07 0.03,-137.14 -0.72,-140.78 412.76 80
9 10/28/2020 07:42:56 0.02,-137.12 -0.09,-137.82 78.95 80
10 10/30/2020 07:28:03 0.02,-137.09 0.48,-134.85 254.59 80
11 10/30/2020 19:49:18 -0.02,-137.08 0.58,-140.01 332.78 80
